| time (UTC) | temp F | wind direction | speed MPH | gust MPH | rain 1hr in | rain 24hr in | rain mn in | humidity % | barometer mb |
| 20260503191702 | 67 | 177 | 0.0 | 3.0 | 0.00 | 0.00 | 0.00 | 56 | 1015.2 |
| 20260503190702 | 66 | 158 | 2.0 | 5.0 | 0.00 | 0.00 | 0.00 | 58 | 1015.4 |
| 20260503185702 | 65 | 186 | 2.0 | 5.0 | 0.00 | 0.00 | 0.00 | 60 | 1015.5 |
| 20260503184702 | 65 | 152 | 3.0 | 6.0 | 0.00 | 0.00 | 0.00 | 60 | 1015.5 |
| 20260503183702 | 64 | 247 | 1.0 | 8.0 | 0.00 | 0.00 | 0.00 | 63 | 1015.6 |
| 20260503182703 | 64 | 220 | 2.0 | 6.0 | 0.00 | 0.00 | 0.00 | 63 | 1015.6 |
| 20260503181702 | 64 | 216 | 3.0 | 6.0 | 0.00 | 0.00 | 0.00 | 62 | 1015.6 |
| 20260503180702 | 64 | 239 | 4.0 | 6.0 | 0.00 | 0.00 | 0.00 | 63 | 1015.6 |
| 20260503175702 | 64 | 247 | 4.0 | 6.0 | 0.00 | 0.00 | 0.00 | 65 | 1015.6 |
| 20260503174702 | 64 | 240 | 5.0 | 6.0 | 0.00 | 0.00 | 0.00 | 65 | 1015.5 |
| 20260503173702 | 64 | 212 | 4.0 | 6.0 | 0.00 | 0.00 | 0.00 | 65 | 1015.4 |
| 20260503172702 | 64 | 194 | 4.0 | 6.0 | 0.00 | 0.00 | 0.00 | 65 | 1015.3 |
| 20260503171702 | 64 | 190 | 4.0 | 8.0 | 0.00 | 0.00 | 0.00 | 66 | 1015.2 |
| 20260503170702 | 64 | 176 | 3.0 | 5.0 | 0.00 | 0.00 | 0.00 | 65 | 1015.1 |
| 20260503150702 | 61 | 165 | 1.0 | 3.0 | 0.00 | 0.00 | 0.00 | 72 | 1014.5 |
| 20260503130702 | 59 | 247 | 0.0 | 1.0 | 0.00 | 0.00 | 0.00 | 78 | 1013.6 |
| 20260503110702 | 58 | 263 | 2.0 | 4.0 | 0.00 | 0.00 | 0.00 | 81 | 1013.4 |
| 20260503080702 | 60 | 183 | 2.0 | 3.0 | 0.00 | 0.00 | 0.00 | 84 | 1014.2 |
| 20260503072702 | 59 | 171 | 2.0 | 3.0 | 0.00 | 0.00 | 0.00 | 85 | 1013.8 |
| 20260503071702 | 59 | 224 | 1.0 | 2.0 | 0.00 | 0.00 | 0.00 | 86 | 1013.7 |
| 20260503070702 | 59 | 223 | 0.0 | 3.0 | 0.00 | 0.00 | 0.00 | 86 | 1013.6 |
| 20260503054702 | 59 | 166 | 2.0 | 3.0 | 0.00 | 0.00 | 0.00 | 86 | 1013.5 |
| 20260503053702 | 59 | 214 | 0.0 | 3.0 | 0.00 | 0.00 | 0.00 | 86 | 1013.6 |
| 20260503052702 | 59 | 212 | 2.0 | 3.0 | 0.00 | 0.00 | 0.00 | 85 | 1013.7 |
| 20260503051702 | 59 | 185 | 2.0 | 4.0 | 0.00 | 0.00 | 0.00 | 85 | 1013.7 |
| 20260503050702 | 59 | 181 | 1.0 | 3.0 | 0.00 | 0.00 | 0.00 | 85 | 1013.6 |
| 20260503045703 | 60 | 214 | 2.0 | 4.0 | 0.00 | 0.00 | 0.00 | 84 | 1013.6 |
| 20260503044702 | 60 | 182 | 0.0 | 3.0 | 0.00 | 0.00 | 0.00 | 84 | 1013.5 |
| 20260503043702 | 60 | 192 | 3.0 | 4.0 | 0.00 | 0.00 | 0.00 | 83 | 1013.3 |
| 20260503042702 | 60 | 178 | 1.0 | 3.0 | 0.00 | 0.00 | 0.00 | 83 | 1013.1 |
| 20260503041702 | 60 | 165 | 2.0 | 4.0 | 0.00 | 0.00 | 0.00 | 82 | 1013.1 |
| 20260503040702 | 60 | 232 | 2.0 | 4.0 | 0.00 | 0.00 | 0.00 | 81 | 1012.8 |
| 20260503035702 | 61 | 193 | 2.0 | 6.0 | 0.00 | 0.00 | 0.00 | 80 | 1012.7 |
| 20260503034702 | 61 | 208 | 2.0 | 4.0 | 0.00 | 0.00 | 0.00 | 80 | 1012.7 |
| 20260503033702 | 61 | 216 | 1.0 | 4.0 | 0.00 | 0.00 | 0.00 | 80 | 1012.4 |
| 20260503032702 | 61 | 211 | 2.0 | 4.0 | 0.00 | 0.00 | 0.00 | 79 | 1012.2 |
| 20260503031702 | 61 | 204 | 2.0 | 5.0 | 0.00 | 0.00 | 0.00 | 79 | 1012.2 |
| 20260503030702 | 61 | 212 | 3.0 | 4.0 | 0.00 | 0.00 | 0.00 | 80 | 1012.1 |
| 20260503025702 | 62 | 236 | 3.0 | 5.0 | 0.00 | 0.00 | 0.00 | 78 | 1011.8 |
| 20260503024702 | 62 | 230 | 2.0 | 8.0 | 0.00 | 0.00 | 0.00 | 77 | 1011.7 |
| 20260503023702 | 63 | 211 | 2.0 | 4.0 | 0.00 | 0.00 | 0.00 | 74 | 1011.4 |
| 20260503022702 | 64 | 214 | 2.0 | 5.0 | 0.00 | 0.00 | 0.00 | 73 | 1011.4 |
| 20260503021702 | 64 | 238 | 5.0 | 10.0 | 0.00 | 0.00 | 0.00 | 72 | 1011.3 |
| 20260503020702 | 66 | 229 | 5.0 | 9.0 | 0.00 | 0.00 | 0.00 | 68 | 1011.2 |
| 20260503015702 | 67 | 214 | 3.0 | 8.0 | 0.00 | 0.00 | 0.00 | 66 | 1011.1 |
| 20260503014702 | 67 | 192 | 1.0 | 4.0 | 0.00 | 0.00 | 0.00 | 66 | 1011.0 |
| 20260503013702 | 68 | 208 | 4.0 | 6.0 | 0.00 | 0.00 | 0.00 | 65 | 1011.0 |
| 20260503012702 | 69 | 234 | 5.0 | 8.0 | 0.00 | 0.00 | 0.00 | 63 | 1011.0 |
| 20260503011702 | 69 | 225 | 6.0 | 8.0 | 0.00 | 0.00 | 0.00 | 62 | 1011.1 |
| 20260503010702 | 69 | 217 | 4.0 | 8.0 | 0.00 | 0.00 | 0.00 | 62 | 1011.0 |
| 20260503005702 | 71 | 208 | 4.0 | 6.0 | 0.00 | 0.00 | 0.00 | 60 | 1011.0 |
| 20260503004702 | 69 | 200 | 2.0 | 6.0 | 0.00 | 0.00 | 0.00 | 62 | 1011.0 |
| 20260503003702 | 71 | 249 | 6.0 | 9.0 | 0.00 | 0.00 | 0.00 | 60 | 1011.2 |
| 20260503002702 | 71 | 230 | 4.0 | 8.0 | 0.00 | 0.00 | 0.00 | 60 | 1011.2 |
| 20260503001702 | 72 | 216 | 4.0 | 8.0 | 0.00 | 0.00 | 0.00 | 59 | 1011.2 |
| 20260503000702 | 71 | 221 | 2.0 | 10.0 | 0.00 | 0.00 | 0.00 | 60 | 1011.1 |
| 20260502235702 | 73 | 227 | 6.0 | 8.0 | 0.00 | 0.00 | 0.00 | 57 | 1011.2 |
| 20260502234702 | 73 | 195 | 3.0 | 4.0 | 0.00 | 0.00 | 0.00 | 59 | 1011.2 |
| 20260502233702 | 72 | 175 | 4.0 | 8.0 | 0.00 | 0.00 | 0.00 | 60 | 1011.2 |
| 20260502232702 | 73 | 249 | 5.0 | 6.0 | 0.00 | 0.00 | 0.00 | 59 | 1011.3 |
| 20260502231703 | 72 | 224 | 4.0 | 6.0 | 0.00 | 0.00 | 0.00 | 59 | 1011.3 |
| 20260502230702 | 73 | 229 | 4.0 | 6.0 | 0.00 | 0.00 | 0.00 | 58 | 1011.4 |
| 20260502225702 | 72 | 239 | 2.0 | 6.0 | 0.00 | 0.00 | 0.00 | 61 | 1011.8 |
| 20260502224702 | 72 | 258 | 5.0 | 9.0 | 0.00 | 0.00 | 0.00 | 60 | 1011.9 |
| 20260502223702 | 72 | 257 | 6.0 | 10.0 | 0.00 | 0.00 | 0.00 | 60 | 1012.1 |
| 20260502222702 | 73 | 248 | 7.0 | 9.0 | 0.00 | 0.00 | 0.00 | 60 | 1012.5 |
| 20260502221702 | 73 | 188 | 6.0 | 12.0 | 0.00 | 0.00 | 0.00 | 60 | 1012.5 |
| 20260502220702 | 74 | 239 | 4.0 | 9.0 | 0.00 | 0.00 | 0.00 | 58 | 1012.7 |
| 20260502215702 | 71 | 213 | 6.0 | 9.0 | 0.00 | 0.00 | 0.00 | 63 | 1012.9 |
| 20260502214702 | 71 | 239 | 9.0 | 11.0 | 0.00 | 0.00 | 0.00 | 62 | 1013.0 |
| 20260502213702 | 72 | 234 | 6.0 | 11.0 | 0.00 | 0.00 | 0.00 | 60 | 1013.3 |
| 20260502212702 | 72 | 240 | 8.0 | 13.0 | 0.00 | 0.00 | 0.00 | 61 | 1013.4 |
| 20260502211702 | 74 | 244 | 8.0 | 10.0 | 0.00 | 0.00 | 0.00 | 58 | 1013.4 |
| 20260502210702 | 73 | 243 | 3.0 | 6.0 | 0.00 | 0.00 | 0.00 | 61 | 1013.3 |
| 20260502205702 | 72 | 218 | 6.0 | 10.0 | 0.00 | 0.00 | 0.00 | 61 | 1013.5 |
| 20260502204702 | 73 | 206 | 6.0 | 8.0 | 0.00 | 0.00 | 0.00 | 60 | 1013.4 |
| 20260502203702 | 73 | 279 | 5.0 | 8.0 | 0.00 | 0.00 | 0.00 | 59 | 1013.5 |
| 20260502202702 | 72 | 245 | 6.0 | 8.0 | 0.00 | 0.00 | 0.00 | 61 | 1013.8 |
| 20260502201702 | 72 | 259 | 5.0 | 8.0 | 0.00 | 0.00 | 0.00 | 63 | 1013.9 |
| 20260502200702 | 70 | 187 | 6.0 | 9.0 | 0.00 | 0.00 | 0.00 | 65 | 1013.9 |
| 20260502195702 | 70 | 264 | 1.0 | 3.0 | 0.00 | 0.00 | 0.00 | 65 | 1014.1 |
| 20260502194702 | 68 | 255 | 4.0 | 6.0 | 0.00 | 0.00 | 0.00 | 68 | 1014.3 |
| 20260502193702 | 69 | 265 | 2.0 | 3.0 | 0.00 | 0.00 | 0.00 | 67 | 1014.4 |
| 20260502192702 | 67 | 259 | 1.0 | 4.0 | 0.00 | 0.00 | 0.00 | 71 | 1014.7 |